Location: ??? ????
(38.0580°N, 23.1536°E)
Time: 22:07:06
(UTC+00:00)

Meteor 1-5 Rocket - Pass Details

Date: 13 December 2025
Orbit: 788 x 913 km, 81.2° (Epoch: 14 January)

Event Time Altitude Azimuth Distance (km) Brightness Sun altitude
Rises 16:10:59 0° 352° (N) 3,315 7.2 -12.0°
Reaches altitude 10° 16:13:21 10° 353° (N) 2,393 6.4 -12.5°
Maximum altitude 16:18:45 82° 81° (E) 835 4.1 -13.5°
Drops below altitude 10° 16:24:19 10° 169° (S) 2,453 6.7 -14.5°
Sets 16:26:45 0° 171° (S) 3,403 7.5 -15.0°
